Overview Statistics Trail Chart Weather Telemetry Raw packets
 

This is the latest recevied weather packets stored in our database for station/object K5KVN. If no packets are shown the sender has not sent any weather packets the latest 10 day(s).

<< 46 47 48 49 50 51 52 >>
Time Temp. Humidity Pressure Rain* Wind** Luminosity Snow
1787975398 24.44° C 67% 1020 hPa 0 mm - - -
1787974797 24.44° C 66% 1020 hPa 0 mm - - -
1787974199 25° C 64% 1019.9 hPa 0 mm - - -
1787973595 25° C 62% 1019.9 hPa 0 mm - - -
1787972996 25.56° C 62% 1019.7 hPa 0 mm - - -
1787972396 25.56° C 62% 1019.7 hPa 0 mm - - -
1787971793 26.11° C 60% 1019.6 hPa 0 mm - - -
1787971193 26.11° C 59% 1019.5 hPa 0 mm - - -
1787970591 26.11° C 59% 1019.4 hPa 0 mm - - -
1787969992 26.11° C 58% 1019.4 hPa 0 mm - - -
1787969451 25.56° C 58% 1019.3 hPa 0 mm - - -
1787968791 25.56° C 57% 1019.2 hPa 0 mm - - -
1787968251 26.11° C 56% 1019 hPa 0 mm - - -
1787967591 26.67° C 55% 1018.8 hPa 0 mm - - -
1787967050 26.67° C 55% 1018.6 hPa 0 mm - - -
1787966388 27.22° C 54% 1018.5 hPa 0 mm - - -
1787965785 28.33° C 52% 1018.5 hPa 0 mm - - -
1787965183 28.89° C 50% 1018.4 hPa 0 mm - - -
1787964584 29.44° C 49% 1018.4 hPa 0 mm - - -
1787963983 30° C 47% 1018.4 hPa 0 mm - - -
1787963385 30.56° C 46% 1018.3 hPa 0 mm - - -
1787962783 31.11° C 44% 1018.3 hPa 0 mm - - -
1787962183 31.67° C 43% 1018.4 hPa 0 mm - - -
1787961584 31.67° C 41% 1018.4 hPa 0 mm - - -
1787960983 32.22° C 40% 1018.3 hPa 0 mm - - -

* Rain latest hour (hover to see other rain measurements)
** Current wind speed in m/s (hover to see current wind gust speed)